| time (UTC) | temp C | wind direction | speed KPH | gust KPH | rain 1hr cm | rain 24hr cm | rain mn cm | humidity % | barometer mb |
| 20260510171426 | 17 | 275 | 6.4 | 14.5 | 0.00 | 0.00 | 0.00 | 5 | 1015.8 |
| 20260510170425 | 17 | 38 | 3.2 | 8.0 | 0.00 | 0.00 | 0.00 | 5 | 1015.8 |
| 20260510165427 | 17 | 12 | 1.6 | 8.0 | 0.00 | 0.00 | 0.00 | 6 | 1015.6 |
| 20260510164427 | 17 | 1 | 1.6 | 6.4 | 0.00 | 0.00 | 0.00 | 5 | 1015.6 |
| 20260510163426 | 17 | 1 | 4.8 | 6.4 | 0.00 | 0.00 | 0.00 | 5 | 1015.5 |
| 20260510162425 | 16 | 0 | 0.0 | 4.8 | 0.00 | 0.00 | 0.00 | 6 | 1015.4 |
| 20260510161426 | 16 | 32 | 3.2 | 6.4 | 0.00 | 0.00 | 0.00 | 6 | 1015.4 |
| 20260510160425 | 16 | 90 | 3.2 | 8.0 | 0.00 | 0.00 | 0.00 | 5 | 1015.3 |
| 20260510155426 | 16 | 32 | 1.6 | 8.0 | 0.00 | 0.00 | 0.00 | 5 | 1015.2 |
| 20260510154426 | 16 | 62 | 1.6 | 9.7 | 0.00 | 0.00 | 0.00 | 6 | 1015.2 |
| 20260510153425 | 16 | 85 | 3.2 | 14.5 | 0.00 | 0.00 | 0.00 | 5 | 1015.1 |
| 20260510152426 | 16 | 64 | 3.2 | 12.9 | 0.00 | 0.00 | 0.00 | 5 | 1015.0 |
| 20260510151430 | 16 | 54 | 4.8 | 11.3 | 0.00 | 0.00 | 0.00 | 6 | 1015.0 |
| 20260510150425 | 16 | 29 | 1.6 | 8.0 | 0.00 | 0.00 | 0.00 | 7 | 1014.9 |
| 20260510145426 | 16 | 49 | 3.2 | 14.5 | 0.00 | 0.00 | 0.00 | 5 | 1014.9 |
| 20260510144425 | 15 | 38 | 3.2 | 14.5 | 0.00 | 0.00 | 0.00 | 4 | 1014.8 |
| 20260510143425 | 15 | 36 | 3.2 | 11.3 | 0.00 | 0.00 | 0.00 | 7 | 1014.8 |
| 20260510142425 | 15 | 53 | 6.4 | 16.1 | 0.00 | 0.00 | 0.00 | 5 | 1014.7 |
| 20260510141426 | 15 | 43 | 6.4 | 16.1 | 0.00 | 0.00 | 0.00 | 5 | 1014.6 |
| 20260510140426 | 15 | 44 | 6.4 | 14.5 | 0.00 | 0.00 | 0.00 | 4 | 1014.5 |
| 20260510135609 | 14 | 40 | 6.4 | 20.9 | 0.00 | 0.00 | 0.00 | 4 | 1014.4 |
| 20260510135425 | 14 | 40 | 6.4 | 20.9 | 0.00 | 0.00 | 0.00 | 4 | 1014.4 |
| 20260510134425 | 14 | 42 | 6.4 | 19.3 | 0.00 | 0.00 | 0.00 | 4 | 1014.3 |
| 20260510133425 | 13 | 24 | 9.7 | 22.5 | 0.00 | 0.00 | 0.00 | 3 | 1014.2 |
| 20260510132425 | 13 | 20 | 9.7 | 20.9 | 0.00 | 0.00 | 0.00 | 3 | 1014.1 |
| 20260510131425 | 13 | 4 | 8.0 | 25.7 | 0.00 | 0.00 | 0.00 | 2 | 1014.1 |
| 20260510130425 | 13 | 8 | 8.0 | 20.9 | 0.00 | 0.00 | 0.00 | 2 | 1014.0 |
| 20260510125426 | 13 | 354 | 8.0 | 20.9 | 0.00 | 0.00 | 0.00 | 1 | 1013.9 |
| 20260510124556 | 13 | 346 | 9.7 | 22.5 | 0.00 | 0.00 | 0.00 | 1 | 1013.9 |
| 20260510124426 | 13 | 346 | 9.7 | 22.5 | 0.00 | 0.00 | 0.00 | 1 | 1013.9 |
| 20260510123426 | 13 | 349 | 9.7 | 22.5 | 0.00 | 0.00 | 0.00 | 1 | 1013.8 |
| 20260510122425 | 13 | 342 | 9.7 | 20.9 | 0.00 | 0.00 | 0.00 | 1 | 1013.7 |
| 20260510121425 | 13 | 346 | 9.7 | 24.1 | 0.00 | 0.00 | 0.00 | 1 | 1013.7 |
| 20260510120425 | 13 | 352 | 14.5 | 25.7 | 0.00 | 0.00 | 0.00 | 1 | 1013.7 |
| 20260510115425 | 13 | 355 | 12.9 | 25.7 | 0.00 | 0.00 | 0.00 | 1013.6 | |
| 20260510114425 | 13 | 356 | 12.9 | 25.7 | 0.00 | 0.00 | 0.00 | 1 | 1013.5 |
| 20260510113425 | 13 | 10 | 14.5 | 27.4 | 0.00 | 0.00 | 0.00 | 1 | 1013.6 |
| 20260510112425 | 13 | 1 | 11.3 | 27.4 | 0.00 | 0.00 | 0.00 | 3 | 1013.5 |
| 20260510111425 | 13 | 11 | 14.5 | 30.6 | 0.00 | 0.00 | 0.00 | 3 | 1013.5 |
| 20260510110425 | 13 | 352 | 12.9 | 29.0 | 0.00 | 0.00 | 0.00 | 4 | 1013.6 |
| 20260510105425 | 13 | 351 | 11.3 | 27.4 | 0.00 | 0.00 | 0.00 | 3 | 1013.4 |
| 20260510104609 | 13 | 338 | 16.1 | 35.4 | 0.00 | 0.00 | 0.00 | 3 | 1013.3 |
| 20260510104425 | 13 | 338 | 16.1 | 35.4 | 0.00 | 0.00 | 0.00 | 3 | 1013.3 |
| 20260510103425 | 13 | 337 | 17.7 | 35.4 | 0.00 | 0.00 | 0.00 | 4 | 1013.3 |
| 20260510102607 | 13 | 335 | 19.3 | 35.4 | 0.00 | 0.00 | 0.00 | 4 | 1013.3 |
| 20260510102426 | 13 | 335 | 19.3 | 35.4 | 0.00 | 0.00 | 0.00 | 4 | 1013.3 |
| 20260510101425 | 13 | 323 | 20.9 | 37.0 | 0.00 | 0.00 | 0.00 | 4 | 1013.3 |
| 20260510100425 | 13 | 321 | 22.5 | 37.0 | 0.00 | 0.00 | 0.00 | 4 | 1013.2 |
| 20260510095426 | 13 | 321 | 20.9 | 35.4 | 0.00 | 0.00 | 0.00 | 4 | 1013.2 |
| 20260510094622 | 13 | 318 | 22.5 | 37.0 | 0.00 | 0.00 | 0.00 | 4 | 1013.3 |
| 20260510094427 | 13 | 318 | 22.5 | 37.0 | 0.00 | 0.00 | 0.00 | 4 | 1013.3 |
| 20260510093425 | 13 | 326 | 20.9 | 30.6 | 0.00 | 0.00 | 0.00 | 4 | 1013.1 |
| 20260510092427 | 13 | 328 | 19.3 | 33.8 | 0.00 | 0.00 | 0.00 | 4 | 1013.1 |
| 20260510091425 | 13 | 325 | 19.3 | 35.4 | 0.00 | 0.00 | 0.00 | 5 | 1013.1 |
| 20260510090425 | 13 | 325 | 20.9 | 37.0 | 0.00 | 0.00 | 0.00 | 5 | 1013.0 |
| 20260510085425 | 13 | 324 | 19.3 | 30.6 | 0.00 | 0.00 | 0.00 | 5 | 1012.9 |
| 20260510084614 | 13 | 325 | 20.9 | 37.0 | 0.00 | 0.00 | 0.00 | 5 | 1012.9 |
| 20260510084425 | 13 | 325 | 20.9 | 37.0 | 0.00 | 0.00 | 0.00 | 5 | 1012.9 |
| 20260510082728 | 13 | 333 | 20.9 | 33.8 | 0.00 | 0.00 | 0.00 | 5 | 1013.1 |
| 20260510081728 | 13 | 323 | 22.5 | 35.4 | 0.00 | 0.00 | 0.00 | 5 | 1013.1 |
| 20260510080628 | 13 | 320 | 19.3 | 35.4 | 0.00 | 0.00 | 0.00 | 5 | 1013.1 |
| 20260510075627 | 13 | 319 | 20.9 | 37.0 | 0.00 | 0.00 | 0.00 | 5 | 1013.1 |
| 20260510074808 | 13 | 324 | 19.3 | 33.8 | 0.00 | 0.00 | 0.00 | 5 | 1013.2 |
| 20260510074627 | 13 | 324 | 19.3 | 33.8 | 0.00 | 0.00 | 0.00 | 5 | 1013.2 |
| 20260510073627 | 13 | 321 | 19.3 | 32.2 | 0.00 | 0.00 | 0.00 | 5 | 1013.2 |
| 20260510072627 | 13 | 329 | 19.3 | 30.6 | 0.00 | 0.00 | 0.00 | 5 | 1013.3 |
| 20260510071627 | 13 | 320 | 19.3 | 30.6 | 0.00 | 0.00 | 0.00 | 4 | 1013.4 |
| 20260510070627 | 13 | 320 | 17.7 | 30.6 | 0.00 | 0.00 | 0.00 | 4 | 1013.4 |
| 20260510065627 | 14 | 321 | 20.9 | 35.4 | 0.00 | 0.00 | 0.00 | 4 | 1013.4 |
| 20260510064627 | 14 | 323 | 19.3 | 32.2 | 0.00 | 0.00 | 0.00 | 4 | 1013.3 |
| 20260510063627 | 14 | 325 | 19.3 | 32.2 | 0.00 | 0.00 | 0.00 | 3 | 1013.3 |
| 20260510062627 | 14 | 327 | 17.7 | 27.4 | 0.00 | 0.00 | 0.00 | 3 | 1013.3 |
| 20260510061627 | 14 | 327 | 17.7 | 29.0 | 0.00 | 0.00 | 0.00 | 3 | 1013.3 |
| 20260510060629 | 14 | 326 | 16.1 | 27.4 | 0.00 | 0.00 | 0.00 | 3 | 1013.3 |
| 20260510055631 | 14 | 323 | 17.7 | 32.2 | 0.00 | 0.00 | 0.00 | 3 | 1013.2 |
| 20260510054628 | 14 | 321 | 16.1 | 30.6 | 0.00 | 0.00 | 0.00 | 4 | 1013.3 |
| 20260510053627 | 14 | 324 | 19.3 | 30.6 | 0.00 | 0.00 | 0.00 | 4 | 1013.3 |
| 20260510052627 | 14 | 320 | 17.7 | 29.0 | 0.00 | 0.00 | 0.00 | 5 | 1013.3 |
| 20260510051627 | 14 | 324 | 16.1 | 33.8 | 0.00 | 0.00 | 0.00 | 5 | 1013.3 |
| 20260510050627 | 14 | 316 | 17.7 | 29.0 | 0.00 | 0.00 | 0.00 | 6 | 1013.4 |
| 20260510045627 | 14 | 322 | 17.7 | 29.0 | 0.00 | 0.00 | 0.00 | 7 | 1013.3 |
| 20260510044627 | 14 | 323 | 16.1 | 27.4 | 0.00 | 0.00 | 0.00 | 7 | 1013.2 |
| 20260510043627 | 15 | 314 | 19.3 | 27.4 | 0.00 | 0.00 | 0.00 | 7 | 1013.2 |
| 20260510042627 | 15 | 312 | 17.7 | 24.1 | 0.00 | 0.00 | 0.00 | 7 | 1013.2 |
| 20260510041627 | 15 | 312 | 16.1 | 27.4 | 0.00 | 0.00 | 0.00 | 7 | 1013.2 |
| 20260510040629 | 14 | 309 | 17.7 | 29.0 | 0.00 | 0.00 | 0.00 | 7 | 1013.0 |
| 20260510035627 | 15 | 304 | 19.3 | 30.6 | 0.00 | 0.00 | 0.00 | 6 | 1013.0 |
| 20260510034627 | 15 | 305 | 17.7 | 30.6 | 0.00 | 0.00 | 0.00 | 6 | 1013.0 |
| 20260510033627 | 15 | 305 | 20.9 | 30.6 | 0.00 | 0.00 | 0.00 | 6 | 1012.9 |
| 20260510032627 | 15 | 305 | 19.3 | 33.8 | 0.00 | 0.00 | 0.00 | 6 | 1012.7 |
| 20260510031628 | 15 | 307 | 17.7 | 29.0 | 0.00 | 0.00 | 0.00 | 6 | 1012.6 |
| 20260510030627 | 15 | 306 | 20.9 | 30.6 | 0.00 | 0.00 | 0.00 | 6 | 1012.6 |
| 20260510025627 | 15 | 302 | 19.3 | 33.8 | 0.00 | 0.00 | 0.00 | 5 | 1012.5 |
| 20260510024629 | 15 | 304 | 19.3 | 29.0 | 0.00 | 0.00 | 0.00 | 6 | 1012.4 |
| 20260510023627 | 15 | 307 | 17.7 | 27.4 | 0.00 | 0.00 | 0.00 | 6 | 1012.3 |
| 20260510022627 | 15 | 304 | 16.1 | 25.7 | 0.00 | 0.00 | 0.00 | 6 | 1012.3 |
| 20260510021627 | 15 | 299 | 17.7 | 27.4 | 0.00 | 0.00 | 0.00 | 6 | 1012.2 |
| 20260510020633 | 15 | 305 | 14.5 | 35.4 | 0.00 | 0.00 | 0.00 | 6 | 1012.3 |
| 20260510015722 | 15 | 301 | 11.3 | 29.0 | 0.00 | 0.00 | 0.00 | 5 | 1012.2 |
| 20260510015627 | 15 | 301 | 11.3 | 29.0 | 0.00 | 0.00 | 0.00 | 5 | 1012.2 |
| 20260510014627 | 16 | 317 | 12.9 | 32.2 | 0.00 | 0.00 | 0.00 | 5 | 1012.2 |
| 20260510013727 | 16 | 283 | 25.7 | 38.6 | 0.00 | 0.00 | 0.00 | 4 | 1012.1 |
| 20260510013627 | 16 | 283 | 25.7 | 38.6 | 0.00 | 0.00 | 0.00 | 4 | 1012.1 |
| 20260510012628 | 16 | 273 | 14.5 | 38.6 | 0.00 | 0.00 | 0.00 | 4 | 1012.0 |
| 20260510011627 | 16 | 306 | 14.5 | 38.6 | 0.00 | 0.00 | 0.00 | 5 | 1012.0 |
| 20260510010629 | 16 | 269 | 12.9 | 33.8 | 0.00 | 0.00 | 0.00 | 4 | 1012.0 |
| 20260510005627 | 17 | 283 | 19.3 | 40.2 | 0.00 | 0.00 | 0.00 | 4 | 1012.0 |
| 20260510004627 | 17 | 298 | 11.3 | 30.6 | 0.00 | 0.00 | 0.00 | 4 | 1012.2 |
| 20260510003628 | 17 | 298 | 11.3 | 27.4 | 0.00 | 0.00 | 0.00 | 5 | 1012.2 |
| 20260510002628 | 17 | 262 | 16.1 | 40.2 | 0.00 | 0.00 | 0.00 | 3 | 1012.2 |
| 20260510001628 | 17 | 266 | 14.5 | 40.2 | 0.00 | 0.00 | 0.00 | 4 | 1012.2 |
| 20260510000627 | 17 | 285 | 9.7 | 40.2 | 0.00 | 0.00 | 0.00 | 5 | 1012.2 |
| 20260509235628 | 18 | 267 | 12.9 | 33.8 | 0.00 | 0.00 | 0.00 | 4 | 1012.2 |
| 20260509234628 | 17 | 273 | 11.3 | 32.2 | 0.00 | 0.00 | 0.00 | 4 | 1012.2 |
| 20260509233627 | 17 | 285 | 17.7 | 30.6 | 0.00 | 0.00 | 0.00 | 5 | 1012.3 |
| 20260509232628 | 17 | 248 | 11.3 | 30.6 | 0.00 | 0.00 | 0.00 | 4 | 1012.3 |
| 20260509231627 | 18 | 274 | 20.9 | 38.6 | 0.00 | 0.00 | 0.00 | 3 | 1012.3 |
| 20260509230627 | 18 | 228 | 3.2 | 35.4 | 0.00 | 0.00 | 0.00 | 3 | 1012.3 |
| 20260509225627 | 17 | 267 | 4.8 | 33.8 | 0.00 | 0.00 | 0.00 | 3 | 1012.5 |
| 20260509224628 | 18 | 283 | 16.1 | 30.6 | 0.00 | 0.00 | 0.00 | 5 | 1012.6 |
| 20260509223628 | 18 | 264 | 12.9 | 38.6 | 0.00 | 0.00 | 0.00 | 5 | 1012.6 |
| 20260509222628 | 17 | 266 | 11.3 | 25.7 | 0.00 | 0.00 | 0.00 | 5 | 1012.6 |
| 20260509221627 | 17 | 255 | 14.5 | 35.4 | 0.00 | 0.00 | 0.00 | 4 | 1012.7 |
| 20260509220628 | 17 | 290 | 11.3 | 40.2 | 0.00 | 0.00 | 0.00 | 5 | 1012.8 |
| 20260509215627 | 17 | 258 | 17.7 | 37.0 | 0.00 | 0.00 | 0.00 | 6 | 1012.9 |
| 20260509214627 | 17 | 250 | 14.5 | 29.0 | 0.00 | 0.00 | 0.00 | 5 | 1013.2 |
| 20260509213627 | 17 | 260 | 14.5 | 33.8 | 0.00 | 0.00 | 0.00 | 5 | 1013.3 |
| 20260509212702 | 18 | 259 | 17.7 | 32.2 | 0.00 | 0.00 | 0.00 | 5 | 1013.4 |
| 20260509212627 | 18 | 259 | 17.7 | 32.2 | 0.00 | 0.00 | 0.00 | 5 | 1013.4 |
| 20260509211702 | 17 | 273 | 17.7 | 40.2 | 0.00 | 0.00 | 0.00 | 5 | 1013.5 |
| 20260509211627 | 17 | 273 | 17.7 | 40.2 | 0.00 | 0.00 | 0.00 | 5 | 1013.5 |
| 20260509210627 | 18 | 262 | 9.7 | 29.0 | 0.00 | 0.00 | 0.00 | 6 | 1013.5 |
| 20260509205705 | 18 | 277 | 16.1 | 27.4 | 0.00 | 0.00 | 0.00 | 7 | 1013.8 |
| 20260509205627 | 18 | 277 | 16.1 | 27.4 | 0.00 | 0.00 | 0.00 | 7 | 1013.8 |
| 20260509204627 | 17 | 256 | 14.5 | 35.4 | 0.00 | 0.00 | 0.00 | 7 | 1013.8 |
| 20260509203627 | 17 | 266 | 11.3 | 24.1 | 0.00 | 0.00 | 0.00 | 7 | 1013.8 |
| 20260509202711 | 17 | 281 | 19.3 | 32.2 | 0.00 | 0.00 | 0.00 | 6 | 1013.9 |
| 20260509202627 | 17 | 281 | 19.3 | 32.2 | 0.00 | 0.00 | 0.00 | 6 | 1013.9 |
| 20260509201627 | 17 | 270 | 16.1 | 27.4 | 0.00 | 0.00 | 0.00 | 7 | 1014.0 |
| 20260509200628 | 17 | 234 | 6.4 | 30.6 | 0.00 | 0.00 | 0.00 | 9 | 1014.1 |
| 20260509195705 | 17 | 252 | 19.3 | 35.4 | 0.00 | 0.00 | 0.00 | 8 | 1014.1 |
| 20260509195627 | 17 | 252 | 19.3 | 35.4 | 0.00 | 0.00 | 0.00 | 8 | 1014.1 |
| 20260509194627 | 17 | 265 | 16.1 | 35.4 | 0.00 | 0.00 | 0.00 | 8 | 1014.1 |
| 20260509193627 | 17 | 274 | 11.3 | 27.4 | 0.00 | 0.00 | 0.00 | 10 | 1014.2 |
| 20260509192309 | 17 | 245 | 8.0 | 27.4 | 0.00 | 0.00 | 0.00 | 10 | 1014.2 |
| 20260509192226 | 17 | 245 | 8.0 | 27.4 | 0.00 | 0.00 | 0.00 | 10 | 1014.2 |
| 20260509191229 | 17 | 269 | 17.7 | 32.2 | 0.00 | 0.00 | 0.00 | 11 | 1014.2 |
| 20260509190226 | 17 | 262 | 12.9 | 24.1 | 0.00 | 0.00 | 0.00 | 12 | 1014.2 |
| 20260509185226 | 16 | 278 | 9.7 | 25.7 | 0.00 | 0.00 | 0.00 | 13 | 1014.3 |
| 20260509184226 | 17 | 252 | 11.3 | 24.1 | 0.00 | 0.00 | 0.00 | 10 | 1014.4 |
| 20260509183228 | 18 | 265 | 4.8 | 17.7 | 0.00 | 0.00 | 0.00 | 10 | 1014.4 |
| 20260509182226 | 18 | 316 | 3.2 | 16.1 | 0.00 | 0.00 | 0.00 | 9 | 1014.4 |
| 20260509181226 | 17 | 119 | 3.2 | 12.9 | 0.00 | 0.00 | 0.00 | 10 | 1014.5 |
| 20260509180226 | 17 | 104 | 4.8 | 14.5 | 0.00 | 0.00 | 0.00 | 7 | 1014.6 |
| 20260509175227 | 17 | 0 | 0.0 | 12.9 | 0.00 | 0.00 | 0.00 | 9 | 1014.6 |
| 20260509174226 | 17 | 37 | 4.8 | 14.5 | 0.00 | 0.00 | 0.00 | 6 | 1014.6 |
| 20260509173226 | 17 | 94 | 3.2 | 12.9 | 0.00 | 0.00 | 0.00 | 9 | 1014.6 |
| 20260509172226 | 17 | 55 | 3.2 | 12.9 | 0.00 | 0.00 | 0.00 | 8 | 1014.6 |